ISS (ZARYA) 1 25544U 98067A 26163.80312907 .00008495 00000+0 16106-3 0 9990 2 25544 51.6335 321.7912 0004900 178.5917 181.5086 15.49196054571074 POISK 1 36086U 09060A 26163.80312907 .00008495 00000+0 16106-3 0 9998 2 36086 51.6335 321.7912 0004900 178.5917 181.5086 15.49196054571189 CSS (TIANHE) 1 48274U 21035A 26163.81770925 .00021976 00000+0 26094-3 0 9991 2 48274 41.4694 348.5894 0007968 41.6006 318.5438 15.60618766292486 ISS (NAUKA) 1 49044U 21066A 26163.80312907 .00008495 00000+0 16106-3 0 9996 2 49044 51.6335 321.7912 0004900 178.5917 181.5086 15.49196054571187 FREGAT DEB 1 49271U 11037PF 26151.14915702 .00018955 00000+0 30994-1 0 9992 2 49271 51.6227 53.0895 0914379 245.3590 104.9405 12.41880577222933 CSS (WENTIAN) 1 53239U 22085A 26162.98578186 .00013571 00000+0 16313-3 0 9991 2 53239 41.4694 353.6513 0008142 34.9117 325.2255 15.60574522288232 CSS (MENGTIAN) 1 54216U 22143A 26163.81770925 .00021976 00000+0 26094-3 0 9995 2 54216 41.4694 348.5894 0007968 41.6006 318.5438 15.60618766293053 HRC MONOBLOCK CAMERA 1 66052U 98067XR 26163.12122306 .00075944 00000+0 53847-3 0 9992 2 66052 51.6257 305.1831 0001029 248.1469 111.9420 15.73254544 37204 SZ-21 MODULE 1 66515U 25246C 26163.21036941 .00048331 00000+0 30206-3 0 9998 2 66515 41.4744 338.3135 0006963 319.0725 40.9596 15.75973730 32955 SOYUZ-MS 28 1 66664U 25275A 26163.80312907 .00008495 00000+0 16106-3 0 9999 2 66664 51.6335 321.7912 0004900 178.5917 181.5086 15.49196054571184 DUPLEX 1 66906U 98067XS 26162.67957832 .00037867 00000+0 42609-3 0 9995 2 66906 51.6279 317.2774 0003801 181.7103 178.3879 15.62186284 29796 ISS OBJECT XY 1 66912U 98067XY 26163.09319393 .00396721 72966-4 10432-2 0 9993 2 66912 51.6190 301.1342 0009094 300.6597 59.3513 15.94183824 30031 KNACKSAT-2 1 67683U 98067XZ 26162.71234266 .00046941 00000+0 58268-3 0 9993 2 67683 51.6308 322.0071 0009845 191.1847 168.8928 15.59478995 19427 CORAL 1 67684U 98067YA 26163.12329840 .00178481 00000+0 11644-2 0 9994 2 67684 51.6233 314.2098 0009050 224.4187 135.6087 15.74747566 19565 GXIBA-1 1 67685U 98067YB 26162.65605621 .00055551 00000+0 64910-3 0 9993 2 67685 51.6289 321.6279 0011055 189.2620 170.8171 15.60974393 19423 UITMSAT-2 1 67686U 98067YC 26163.12627349 .00076662 00000+0 79092-3 0 9991 2 67686 51.6276 318.0150 0006455 182.2718 177.8249 15.64086603 19512 LEOPARD 1 67687U 98067YD 26162.67987372 .00050616 00000+0 60633-3 0 9998 2 67687 51.6314 321.7991 0007128 171.3184 188.7934 15.60407815 19345 HMU-SAT2 1 67688U 98067YE 26161.64001691 .00056298 00000+0 62243-3 0 9997 2 67688 51.6298 326.1003 0006967 170.9243 189.1878 15.62444427 19198 CREW DRAGON 12 1 67796U 26031A 26163.80312907 .00008495 00000+0 16106-3 0 9997 2 67796 51.6335 321.7912 0004900 178.5917 181.5086 15.49196054571181 PROGRESS-MS 33 1 68319U 26058A 26163.80312907 .00008495 00000+0 16106-3 0 9998 2 68319 51.6335 321.7912 0004900 178.5917 181.5086 15.49196054571183 CYGNUS NG-24 1 68689U 26079A 26162.96453450 .00008067 00000+0 15344-3 0 9994 2 68689 51.6334 325.9414 0004931 175.6343 184.4689 15.49182446571057 PROGRESS-MS 34 1 68837U 26093A 26162.96453450 .00008067 00000+0 15344-3 0 9995 2 68837 51.6334 325.9414 0004931 175.6343 184.4689 15.49182446571052 TIANZHOU-10 1 69049U 26102A 26163.24175922 .00022632 00000+0 26889-3 0 9999 2 69049 41.4683 352.0907 0007269 36.6266 323.5069 15.60595776 5043 DRAGON CRS-34 1 69103U 26107A 26163.80312907 .00008495 00000+0 16106-3 0 9995 2 69103 51.6335 321.7912 0004900 178.5917 181.5086 15.49196054571185 SHENZHOU-23 (SZ-23) 1 69180U 26113A 26162.98578186 .00013571 00000+0 16313-3 0 9999 2 69180 41.4694 353.6513 0008142 34.9117 325.2255 15.60574522292576